Location: Unspecified
(35.6961°N, 0.0000°E)
Time: 03:31:50
(UTC+00:00)

S-56A Canister/Altair - Pass Details

Date: 29 May 2019
Orbit: 633 x 2499 km, 38.9° (Epoch: 14 June)

Event Time Altitude Azimuth Distance (km) Brightness Sun altitude
Rises 03:08:10 0° 285° (WNW) 3,564 - -17.1°
Exits shadow 03:08:41 - 285° (WNW) 3,383 10.5 -17.0°
Reaches altitude 10° 03:10:22 10° 286° (WNW) 2,796 10.1 -16.8°
Maximum altitude 03:17:15 82° 14° (NNE) 1,355 8.8 -15.7°
Drops below altitude 10° 03:28:00 10° 103° (ESE) 4,231 11.8 -14.1°
Sets 03:32:03 0° 104° (ESE) 5,498 12.4 -13.5°
